Regional Weather Roundup
Issued by NWS

Home | Current Version | Previous Version | Text Only | Print | Product List | Glossary On
Versions: 1 2 3 4 5 6 7 8 9 10 11 12 13 14 15 16 17 18 19 20 21 22 23 24 25 26 27 28 29 30 31 32 33 34 35 36 37 38 39 40 41 42 43 44 45 46 47 48 49 50
000
ASUS43 KTOP 310408
RWRKS

WEATHER ROUNDUP FOR KANSAS
NATIONAL WEATHER SERVICE GOODLAND KS
1000 PM CST FRI JAN 30 2015

NOTE:  "FAIR" INDICATES FEW OR NO CLOUDS BELOW 12,000 FEET WITH NO
SIGNIFICANT WEATHER AND/OR OBSTRUCTIONS TO VISIBILITY.

KSZ001>006-013>018-027>032-041>047-310500-
NORTHWEST KANSAS

CITY           SKY/WX    TMP DP  RH WIND       PRES   REMARKS
GOODLAND       CLOUDY    33  32  96 S15       30.11F WCI  23
HAYS           CLOUDY    36  27  69 S9        30.25F
HILL CITY      LGT SNOW  34  32  92 S6        30.23F FOG
RUSSELL        LGT SNOW  35  32  88 S13       30.26F FOG     WCI  26
$$

KSZ061>065-074>080-084>089-310500-
SOUTHWEST KANSAS

CITY           SKY/WX    TMP DP  RH WIND       PRES   REMARKS
DODGE CITY     LGT RAIN  33  31  92 S16       30.23F WCI  23
ELKHART          N/A     34  29  82 S13         N/A  WCI  25
GARDEN CITY    MIX PCPN  31  31 100 S16       30.18F FOG     WCI  20
LIBERAL        CLOUDY    36  30  80 SE7       30.24S
PRATT          MIX PCPN  36  30  80 SE7       30.29S
$$

KSZ066>073-081>083-090>101-310500-
SOUTHEAST KANSAS

CITY           SKY/WX    TMP DP  RH WIND       PRES   REMARKS
CHANUTE        CLOUDY    38  26  62 CALM      30.36F
COFFEYVILLE    CLOUDY    38  28  67 NE3       30.37F
HUTCHINSON     LGT RAIN  38  30  73 S5        30.33S
MEDICINE LODGE   N/A     38  26  62 SE7       30.29F
NEWTON         CLOUDY    37  23  56 S5        30.34S
PARSONS        CLOUDY    38  28  67 CALM      30.38F
WICHITA INTL   LGT RAIN  39  28  64 SW5       30.33S
WICHITA JABRA  LGT RAIN  40  25  55 S6        30.33F
WICHITA MCCONL CLOUDY    40  25  53 VRB3      30.32F
WINFIELD       CLOUDY    40  23  50 SE6       30.35F
$$

KSZ007>012-019>026-033>040-048>060-102>105-310500-
NORTHEAST KANSAS

CITY           SKY/WX    TMP DP  RH WIND       PRES   REMARKS
CONCORDIA      LGT RAIN  36  34  92 S10       30.31S FOG     WCI  28
EMPORIA        CLOUDY    37  24  59 S5        30.34F
LAWRENCE       CLOUDY    33  23  66 SE3       30.37S
MANHATTAN      LGT RAIN  38  32  79 SW6       30.33F
MARYSVILLE     CLOUDY    37  27  65 S13       30.29F WCI  29
OLATHE IND     CLOUDY    33  23  66 S5        30.36F
OLATHE EXE     CLOUDY    34  21  59 S3        30.35F
SALINA         LGT RAIN  38  33  82 S6        30.33S
TOPEKA BILLARD CLOUDY    39  24  55 S5        30.36F
TOPEKA FORBES  CLOUDY    39  24  55 S9        30.35S
$$


USA.gov is the U.S. government's official web portal to all federal, state and local government web resources and services.